Tracking 29933 objects as of 3-Dec-2024
HD Live streaming from Space Station
objects crossing your sky now

STARLINK-5544

Track STARLINK-5544 now!
10-day predictions
STARLINK-5544 is classified as:


NORAD ID: 55757
Int'l Code: 2023-028S
Perigee: 577.2 km
Apogee: 581.2 km
Inclination: 70.0 °
Period: 96.1 minutes
Semi major axis: 6950 km
RCS: Unknown
Launch date: March 3, 2023
Source: United States (US)
Launch site: AIR FORCE WESTERN TEST RANGE (AFWTR)
Your satellite tracking list
Your tracking list is empty




NASA's NSSDC Master Catalog

Two Line Element Set (TLE):
1 55757U 23028S   24337.72395358 -.00000050  00000-0  36041-5 0  9990
2 55757  69.9993 329.1738 0002864 269.3504  90.7327 14.98329268 96845
Source of the keplerian elements: AFSPC